Home   Weather   Macon   Past weeks

Flag for USA Past Weather in Macon, Georgia, USA — Yesterday and Last 2 Weeks

Now
56 °F

Light rain. Low clouds.


Feels Like: 54 °F
Forecast: 54 / 69 °F
Wind: 9 mph from Northeast

Location: Middle Georgia Regional Airport

Current Time: Dec 6, 2016 at 3:24:34 am

Latest Report: Dec 6, 2016 at 2:53 am


Visibility: 10 mi

Pressure: 29.76 "Hg

Humidity: 93%

Dew Point: 54 °F

Location of MaconLocation

Past Weather in Macon — Graph

°F

Macon Temperature Yesterday

Maximum temperature yesterday: 57 °F (at 2:53 pm)
Minimum temperature yesterday: 46 °F (at 6:53 am)
Average temperature yesterday: 51 °F

High & Low Weather Summary for the Past Weeks

 TemperatureHumidityPressure
High80 °F (Nov 30, 1:53 pm)97% (Nov 29, 1:53 pm)30.30 "Hg (Nov 29, 1:53 pm)
Low29 °F (Nov 22, 6:53 am)6% (Nov 21, 1:53 pm)29.72 "Hg (Nov 30, 2:53 pm)
Average55 °F65%30.10 "Hg
* Reported Nov 21 1:53 am — Dec 6 1:53 am, Macon, Weather by CustomWeather, © 2016

Note: Actual official high and low records may vary slightly from our data, if they occured in-between our weather recording intervals... More about our weather records

Advertising

Macon Weather History for the Previous 24 Hours

Scroll right to see more
 ConditionsComfort  
Time TempWeatherWind HumidityBarometerVisibility
1:53 am
Tue, Dec 6
56 °FLight rain. Mostly cloudy.9 mph93%29.79 "Hg9 mi
12:53 am55 °FLight rain. Low clouds.8 mph96%29.80 "Hg7 mi
11:53 pm
Mon, Dec 5
55 °FLow clouds.8 mph96%29.82 "Hg10 mi
10:53 pm55 °FRain. Fog.9 mph93%29.83 "Hg6 mi
9:53 pm54 °FRain. Fog.12 mph93%29.86 "Hg4 mi
8:53 pm54 °FRain. Fog.10 mph93%29.90 "Hg4 mi
7:53 pm53 °FHeavy rain. Fog.7 mph96%29.90 "Hg4 mi
6:53 pm53 °FHeavy rain. Fog.3 mph96%29.93 "Hg1 mi
5:53 pm54 °FRain. Fog.9 mph93%29.91 "Hg1 mi
4:53 pm56 °FLight rain. Overcast.9 mph87%29.92 "Hg9 mi
3:53 pm57 °FOvercast.6 mph81%29.90 "Hg10 mi
2:53 pm57 °FOvercast.5 mph81%29.91 "Hg10 mi
1:53 pm55 °FOvercast.No wind83%29.91 "Hg10 mi
12:53 pm54 °FMore clouds than sun.3 mph86%29.95 "Hg10 mi
10:53 am48 °FFog.6 mph93%30.01 "Hg6 mi
9:53 am47 °FFog.8 mph97%30.02 "Hg1 mi
8:53 am47 °FFog.5 mph97%30.01 "Hg0 mi
8:01 am46 °FFog.5 mph96%30.01 "Hg0 mi
6:53 am46 °FFog.6 mph96%30.00 "Hg6 mi
5:53 am47 °FLow clouds.12 mph93%29.97 "Hg10 mi
4:53 am47 °FLow clouds.3 mph97%29.97 "Hg10 mi
3:53 am47 °FLow clouds.6 mph97%29.99 "Hg10 mi
Weather by CustomWeather, © 2016

See weather overviewHow to use our weather pages